Le nostre stazioni meteo in Italia

Pubblicità
Il mio iltempo24.it
Chateau Chinon, Francia (7270): Temperatura & dewpoint: 13.06.2019 01:00:00 - 19.06.2019 01:00:00 (CEST)Chateau Chinon, Francia (7270): velocità del vento & gusts: 13.06.2019 01:00:00 - 19.06.2019 01:00:00 (CEST)Chateau Chinon, Francia (7270): direzione del vento: 13.06.2019 01:00:00 - 19.06.2019 01:00:00 (CEST)Chateau Chinon, Francia (7270): precipitazioni: 13.06.2019 01:00:00 - 19.06.2019 01:00:00 (CEST)
Data & Tempo tt [°C] td [°C] ff [km/h] ff [kn] fx [km/h] fx [kn] dd rr [mm]
19.06.2019 01:00:00 22,3 8,4 8 4 34 18 S 0,0
19.06.2019 00:00:00 22,6 9,4 8 4 29 16 SSE 0,0
18.06.2019 23:00:00 20,2 11,4 8 4 28 15 E 0,0
18.06.2019 22:00:00 19,6 13,1 4 2 16 9 E 0,0
18.06.2019 21:00:00 21,7 14,1 4 2 24 13 E 0,0
18.06.2019 20:00:00 24,9 13,8 4 2 24 13 ESE -
18.06.2019 19:00:00 25,0 13,9 4 2 16 9 E 0,0
18.06.2019 18:00:00 25,8 14,9 4 2 26 14 ESE 0,0
18.06.2019 17:00:00 27,5 11,9 8 4 34 18 S 0,0
18.06.2019 16:00:00 26,9 12,9 5 3 24 13 SSO 0,0
18.06.2019 15:00:00 26,8 15,8 4 2 22 12 S 0,0
18.06.2019 14:00:00 25,1 14,2 5 3 24 13 SO -
18.06.2019 13:00:00 26,4 14,2 8 4 28 15 S 0,0
18.06.2019 12:00:00 23,7 13,3 8 4 18 10 SSO 0,0
18.06.2019 11:00:00 24,3 15,2 4 2 16 9 SE 0,0
18.06.2019 10:00:00 22,2 15,8 4 2 21 11 E 0,0
18.06.2019 09:00:00 22,9 15,5 4 2 16 9 E 0,0
18.06.2019 08:00:00 20,0 15,0 4 2 16 9 E -
18.06.2019 07:00:00 16,6 12,9 5 3 21 11 E 0,0
18.06.2019 06:00:00 14,8 11,9 4 2 13 7 E 0,0
18.06.2019 05:00:00 14,8 11,8 4 2 13 7 E 0,0
18.06.2019 04:00:00 14,8 11,2 4 2 13 7 E 0,0
18.06.2019 03:00:00 15,4 11,4 4 2 15 8 E 0,0
18.06.2019 02:00:00 15,6 11,4 4 2 13 7 E -
18.06.2019 01:00:00 15,4 11,0 4 2 16 9 E 0,0
18.06.2019 00:00:00 15,8 11,0 4 2 11 6 E 0,0
17.06.2019 23:00:00 16,1 11,0 2 1 9 5 E 0,0
17.06.2019 22:00:00 18,0 12,2 2 1 8 4 ESE 0,0
17.06.2019 21:00:00 20,1 11,3 0 0 9 5 N 0,0
17.06.2019 20:00:00 23,7 10,4 4 2 9 5 S -
17.06.2019 19:00:00 25,9 11,3 0 0 9 5 N 0,0
17.06.2019 18:00:00 25,3 11,5 2 1 11 6 E 0,0
17.06.2019 17:00:00 25,1 10,5 4 2 15 8 E 0,0
17.06.2019 16:00:00 24,5 10,0 4 2 16 9 E 0,0
17.06.2019 15:00:00 25,3 11,8 4 2 15 8 E 0,0
17.06.2019 14:00:00 24,7 10,6 4 2 18 10 ENE -
17.06.2019 13:00:00 23,3 11,4 4 2 21 11 ENE 0,0
17.06.2019 12:00:00 23,2 11,9 4 2 18 10 ENE 0,0
17.06.2019 11:00:00 22,3 13,4 4 2 24 13 ENE 0,0
17.06.2019 10:00:00 20,9 13,3 2 1 13 7 N 0,0
17.06.2019 09:00:00 18,9 11,9 2 1 13 7 NNE 0,0
17.06.2019 08:00:00 16,7 11,8 2 1 11 6 NNO -
17.06.2019 07:00:00 13,2 10,4 2 1 29 16 E 0,0
17.06.2019 06:00:00 11,6 9,2 4 2 16 9 E 0,0
17.06.2019 05:00:00 10,5 9,3 2 1 9 5 ENE 0,0
17.06.2019 04:00:00 10,7 9,1 2 1 8 4 NE 0,0
17.06.2019 03:00:00 11,7 9,6 2 1 11 6 E 0,0
17.06.2019 02:00:00 12,2 10,1 2 1 8 4 E -
17.06.2019 01:00:00 12,7 10,1 2 1 9 5 E 0,0
17.06.2019 00:00:00 13,5 9,9 4 2 21 11 ENE 0,0
16.06.2019 23:00:00 13,7 9,9 4 2 21 11 E 0,0
16.06.2019 22:00:00 14,0 9,8 0 0 8 4 N 0,0
16.06.2019 21:00:00 16,9 11,2 0 0 11 6 N 0,0
16.06.2019 20:00:00 21,3 11,6 0 0 15 8 N -
16.06.2019 19:00:00 21,4 11,4 4 2 15 8 NNE 0,0
16.06.2019 18:00:00 21,6 11,9 4 2 16 9 N 0,0
16.06.2019 17:00:00 21,5 11,8 4 2 15 8 NNE 0,0
16.06.2019 16:00:00 20,4 11,1 4 2 15 8 N 0,0
16.06.2019 15:00:00 19,9 12,2 5 3 16 9 SSO 0,0
16.06.2019 14:00:00 19,3 12,6 5 3 15 8 SO -
16.06.2019 13:00:00 17,9 11,9 4 2 18 10 ONO 0,0
16.06.2019 12:00:00 16,9 11,2 4 2 13 7 O 0,0
16.06.2019 11:00:00 14,6 11,2 4 2 11 6 SO 0,0
16.06.2019 10:00:00 12,4 10,3 0 0 8 4 N 0,0
16.06.2019 09:00:00 14,1 10,1 2 1 9 5 S 0,0
16.06.2019 08:00:00 12,2 9,9 0 0 5 3 N -
16.06.2019 07:00:00 9,4 9,3 4 2 8 4 SSE 0,0
16.06.2019 06:00:00 8,4 8,1 0 0 5 3 N 0,0
16.06.2019 05:00:00 8,5 8,2 0 0 8 4 N 0,0
16.06.2019 04:00:00 8,4 8,1 0 0 8 4 N 0,0
16.06.2019 03:00:00 9,4 8,8 0 0 13 7 N 0,0
16.06.2019 02:00:00 10,1 9,6 2 1 15 8 NE -
16.06.2019 01:00:00 9,9 9,3 2 1 26 14 SSO 0,0
16.06.2019 00:00:00 10,1 9,3 4 2 15 8 SO 0,0
15.06.2019 23:00:00 10,7 9,6 4 2 16 9 OSO 0,0
15.06.2019 22:00:00 11,1 9,2 4 2 15 8 OSO 0,0
15.06.2019 21:00:00 12,7 10,2 0 0 11 6 N 0,0
15.06.2019 20:00:00 13,8 11,7 2 1 15 8 NNE -
15.06.2019 19:00:00 15,1 12,4 4 2 15 8 NNE 0,0
15.06.2019 18:00:00 16,3 14,5 4 2 16 9 N 0,0
15.06.2019 17:00:00 15,1 13,6 2 1 13 7 N 0,0
15.06.2019 16:00:00 14,9 13,6 2 1 15 8 OSO 0,2
15.06.2019 15:00:00 13,8 13,2 2 1 9 5 ONO 2,0
15.06.2019 14:00:00 14,0 13,0 2 1 13 7 O -
15.06.2019 13:00:00 15,0 13,5 2 1 11 6 O 0,0
15.06.2019 12:00:00 15,3 13,8 2 1 16 9 SO 0,0
15.06.2019 11:00:00 13,8 13,2 4 2 15 8 SO 0,0
15.06.2019 10:00:00 13,1 12,9 2 1 18 10 OSO 0,0
15.06.2019 09:00:00 13,1 12,9 4 2 16 9 SO 0,0
15.06.2019 08:00:00 12,7 12,7 2 1 15 8 NNE -
15.06.2019 07:00:00 12,4 12,4 2 1 16 9 NNE 0,0
15.06.2019 06:00:00 12,4 12,4 4 2 26 14 OSO 0,2
15.06.2019 05:00:00 12,5 12,5 8 4 24 13 SO 0,0
15.06.2019 04:00:00 12,4 12,2 4 2 24 13 SO 0,0
15.06.2019 03:00:00 12,6 12,6 5 3 22 12 OSO 0,0
15.06.2019 02:00:00 12,3 12,1 4 2 16 9 O -
15.06.2019 01:00:00 12,3 12,1 4 2 16 9 SSE 0,8
15.06.2019 00:00:00 12,0 11,8 5 3 28 15 OSO 5,0
14.06.2019 23:00:00 12,5 12,3 4 2 21 11 SO 2,0
14.06.2019 22:00:00 12,6 12,1 2 1 9 5 O 0,4
14.06.2019 21:00:00 12,7 11,6 5 3 15 8 NE 0,6
14.06.2019 20:00:00 13,3 12,8 4 2 16 9 NNE -
14.06.2019 19:00:00 14,8 13,2 0 0 9 5 N 0,0
14.06.2019 18:00:00 15,3 11,3 4 2 13 7 SSE 0,2
14.06.2019 17:00:00 15,9 12,5 2 1 11 6 O 0,0
14.06.2019 16:00:00 16,5 11,2 4 2 22 12 SSO 0,0
14.06.2019 15:00:00 15,7 11,3 4 2 31 17 E 0,0
14.06.2019 14:00:00 17,7 11,0 5 3 34 18 E -
14.06.2019 13:00:00 17,7 11,5 8 4 41 22 E 0,0
14.06.2019 12:00:00 18,1 11,4 8 4 34 18 E 0,0
14.06.2019 11:00:00 18,4 12,8 8 4 31 17 E 0,0
14.06.2019 10:00:00 17,0 11,9 4 2 22 12 E 0,0
14.06.2019 09:00:00 15,6 10,6 4 2 29 16 E 0,0
14.06.2019 08:00:00 12,8 10,2 8 4 28 15 ENE -
14.06.2019 07:00:00 12,8 9,2 8 4 26 14 NE 0,0
14.06.2019 06:00:00 12,4 9,0 5 3 15 8 N 0,0
14.06.2019 05:00:00 13,1 7,5 4 2 28 15 ONO 0,0
14.06.2019 04:00:00 17,7 3,2 9 5 26 14 SO 0,0
14.06.2019 03:00:00 17,5 4,8 4 2 22 12 S 0,0
14.06.2019 02:00:00 16,1 7,6 5 3 18 10 SSE -
14.06.2019 01:00:00 16,4 6,5 4 2 18 10 SE 0,0
14.06.2019 00:00:00 15,2 6,7 5 3 13 7 ESE 0,0
13.06.2019 23:00:00 17,3 6,2 2 1 8 4 SSE 0,0
13.06.2019 22:00:00 16,8 6,0 0 0 9 5 N 0,0
13.06.2019 21:00:00 17,2 7,3 2 1 24 13 E 0,0
13.06.2019 20:00:00 19,8 8,5 4 2 24 13 E -
13.06.2019 19:00:00 21,2 9,4 4 2 21 11 ENE 0,0
13.06.2019 18:00:00 20,7 8,7 4 2 26 14 E 0,0
13.06.2019 17:00:00 20,8 7,8 11 6 41 22 S 0,0
13.06.2019 16:00:00 21,0 5,7 8 4 34 18 S 0,0
13.06.2019 15:00:00 21,9 6,5 8 4 28 15 S 0,0
13.06.2019 14:00:00 20,5 6,8 8 4 29 16 SE -
13.06.2019 13:00:00 19,0 7,1 11 6 34 18 SSO 0,0
13.06.2019 12:00:00 17,4 7,2 9 5 31 17 SSO 0,0
13.06.2019 11:00:00 16,7 6,8 9 5 28 15 SSO 0,0
13.06.2019 10:00:00 15,4 6,9 5 3 22 12 S 0,0
13.06.2019 09:00:00 14,1 6,9 5 3 18 10 SSE 0,0
13.06.2019 08:00:00 12,1 6,8 5 3 21 11 SSO -
13.06.2019 07:00:00 9,3 6,6 4 2 22 12 S 0,0
13.06.2019 06:00:00 8,6 6,4 8 4 26 14 SSO 0,0
13.06.2019 05:00:00 8,5 6,3 8 4 34 18 SO 0,0
13.06.2019 04:00:00 9,0 6,4 13 7 29 16 SO 0,0
13.06.2019 03:00:00 9,1 6,7 15 8 34 18 SSO 0,0
13.06.2019 02:00:00 8,9 6,9 9 5 31 17 SO -
13.06.2019 01:00:00 9,0 7,0 5 3 34 18 OSO 0,0

tt = Temperatura
td = dewpoint
ff = velocità del vento
fx = gusts
dd = direzione del vento
rr = precipitazioni

Stazioni seguenti

WeatherPro
AMSI
MeteoEarth